Regional Weather Roundup
Issued by NWS Midland/Odessa, TX

Skip options and go directly to product.
Home | Oldest Version | Previous Version | Current Version | All | Text Only | Save Text | Print | Product List | Glossary Off

Skip product version selection by date and time.   

639
ASUS44 KMAF 251401
RWRMAF
MIDLAND AREA WEATHER ROUNDUP
NATIONAL WEATHER SERVICE MIDLAND TX
900 AM CDT MON JUL 25 2016

...IN SOUTHWEST TEXAS AND SOUTHEAST NEW MEXICO...

CITY           SKY/WX    TMP DP  RH WIND       PRES   REMARKS
ALPINE         SUNNY     77  58  52 CALM      30.22R
ANDREWS        FAIR      82  60  48 S3        30.11R
ARTESIA        SUNNY     81  57  44 N14       30.13R
BIG SPRING     SUNNY     83  67  58 S8        30.11R
CARLSBAD       SUNNY     82  55  39 NW10      30.10R
DRYDEN           N/A     82  70  66 E12       30.02R
FORT STOCKTON  SUNNY     81  67  62 S15       30.07R
GUAD PASS      SUNNY     77  55  46 NE16      30.24R
HOBBS          NOT AVBL
MARFA          PTSUNNY   76  59  55 N5        30.20R
MIDLAND AIRPK  SUNNY     83  63  50 S8        30.10R
MIDLAND INTL   SUNNY     82  63  52 S9        30.09R
ODESSA         SUNNY     83  64  52 S12       30.10R
PECOS          SUNNY     82  62  49 E8        30.04R
PRESIDIO       CLOUDY    81  69  66 CALM      30.04R
SEMINOLE       SUNNY     80  58  46 CALM      30.13R
SNYDER           N/A     81  65  58 S9        30.08R
WINK           SUNNY     82  64  54 SE12      30.06R
$$
...OTHER STATIONS IN TEXAS...

CITY           SKY/WX    TMP DP  RH WIND       PRES   REMARKS
ABILENE        SUNNY     84  68  58 S9        30.05R
AMARILLO       SUNNY     77  63  61 SE3       30.15R
AUSTIN         CLOUDY    82  76  81 SW7       29.99S
BROWNSVILLE    SUNNY     86  77  74 S13       29.94R
CORPUS CHRISTI MOSUNNY   85  78  80 S9        29.96R
DALLAS FTW     CLOUDY    84  73  69 CALM      29.98R
DEL RIO        SUNNY     82  72  71 E12       29.97R
EL PASO        MOSUNNY   82  55  39 N6        30.10R
HOUSTON INT    MOSUNNY   86  76  71 CALM      29.97S
LUBBOCK        PTSUNNY   80  62  54 CALM      30.12S
SAN ANGELO     SUNNY     82  69  64 S10       30.05R
SAN ANTONIO    CLOUDY    81  74  79 SE5       30.01R
WACO           CLOUDY    84  72  67 S7        29.99R
WICHITA FALLS  NOT AVBL
$$
...OTHER LOCATIONS IN NEW MEXICO...

CITY           SKY/WX    TMP DP  RH WIND       PRES   REMARKS
ALAMAGORDO     SUNNY     82  54  36 CALM      30.14R
ALBUQUERQUE    CLOUDY    76  52  43 CALM      30.27R
CANNON AFB     NOT AVBL
CLOVIS         SUNNY     75  57  53 NE9       30.19S
HOLLOMAN AFB   NOT AVBL
ROSWELL        SUNNY     79  55  43 N12       30.14R
RUIDOSO          N/A     68  50  52 CALM      30.38R
SANTA FE       CLOUDY    69  52  54 N5        30.34S
TRUTH OR CONSE SUNNY     80  51  36 N6        30.19R
TUCUMCARI      SUNNY     76  60  57 VRB6      30.19R
$$

USA.gov is the U.S. government's official web portal to all federal, state and local government web resources and services.